Scappoose, OR

4:16 PM PDT on March 23, 2017 (GMT -0700)
Scappoose Industrial

Weather History for KSPB - March, 2013

Change the Weather History Date:

Monday, March 25, 2013

  Actual Average Record
Temperature  
Mean Temperature 48 °F -  
Max Temperature 63 °F - 63 °F (2013)
Min Temperature 35 °F - 30 °F (2008)
Degree Days  
Heating Degree Days 16    
Month to date heating degree days 503  
Since 1 July heating degree days 3884  
Cooling Degree Days 0    
Month to date cooling degree days 0  
Year to date cooling degree days 0  
Moisture  
Dew Point 35 °F    
Average Humidity 64    
Maximum Humidity 93    
Minimum Humidity 34    
Precipitation  
Precipitation 0.05 in - 0.80 in (2004)
Month to date precipitation 2.41  
Year to date precipitation 6.27  
Sea Level Pressure  
Sea Level Pressure 30.00 in    
Wind  
Wind Speed 1 mph (WSW)    
Max Wind Speed 8 mph    
Max Gust Speed 12 mph    
Visibility 10 miles    
Events Rain    
T = Trace of Precipitation, MM = Missing Value Source: NWS Daily Summary

Daily Weather History Graph

Daily Weather History Graph

Search for Another Location

Airport or City:

Trip Planner

Search our weather history database for the weather conditions in past years. The results will help you decide how hot, cold, wet, or windy it might be!

Date:

Astronomy

Mar. 25, 2013 Rise Set
Actual Time 7:04 AM PDT 7:31 PM PDT
Civil Twilight 6:34 AM PDT 8:00 PM PDT
Nautical Twilight 5:59 AM PDT 8:36 PM PDT
Astronomical Twilight 5:22 AM PDT 9:12 PM PDT
Moon 6:06 PM PDT (3/25) 5:54 AM PDT (3/25)
Length of Visible Light 13h 26m
Length of Day
12h 26m
Waxing Gibbous, 97% of the Moon is Illuminated
Mar 25
Waxing Gibbous
Mar 27
Full
Apr 2
Last Quarter
Apr 10
New
Apr 18
First Quarter

Hourly Weather History & Observations

Time (PDT) Temp. Windchill Dew Point Humidity Pressure Visibility Wind Dir Wind Speed Gust Speed Precip Events Conditions
12:53 AM 36.0 °F 33.3 °F 30.9 °F 82% 30.09 in 10.0 mi West 3.5 mph - N/A   Clear
1:53 AM 35.1 °F - 30.9 °F 85% 30.09 in 10.0 mi Calm Calm - N/A   Clear
2:53 AM 37.0 °F 34.5 °F 30.9 °F 79% 30.08 in 10.0 mi WNW 3.5 mph - N/A   Clear
3:53 AM 37.9 °F - 30.9 °F 76% 30.07 in 10.0 mi Calm Calm - N/A   Clear
4:53 AM 39.0 °F - 32.0 °F 76% 30.06 in 10.0 mi Calm Calm - N/A   Overcast
5:53 AM 39.9 °F - 32.0 °F 73% 30.06 in 10.0 mi Calm Calm - N/A   Overcast
6:53 AM 39.0 °F - 32.0 °F 76% 30.06 in 10.0 mi Calm Calm - N/A   Overcast
7:53 AM 39.9 °F - 33.1 °F 77% 30.06 in 10.0 mi Calm Calm - N/A   Mostly Cloudy
8:53 AM 44.1 °F - 35.1 °F 71% 30.04 in 10.0 mi Calm Calm - N/A   Clear
9:53 AM 48.0 °F - 30.0 °F 50% 30.04 in 10.0 mi Calm Calm - N/A   Clear
10:53 AM 51.1 °F - 30.9 °F 46% 30.02 in 10.0 mi Variable 3.5 mph - N/A   Clear
11:53 AM 55.0 °F - 32.0 °F 42% 30.01 in 10.0 mi Calm Calm - N/A   Clear
12:53 PM 57.0 °F - 32.0 °F 39% 29.98 in 10.0 mi Variable 3.5 mph - N/A   Clear
1:53 PM 60.1 °F - 33.1 °F 36% 29.96 in 10.0 mi Calm Calm - N/A   Partly Cloudy
2:53 PM 61.0 °F - 33.1 °F 35% 29.94 in 10.0 mi Calm Calm - N/A   Mostly Cloudy
3:53 PM 62.1 °F - 34.0 °F 35% 29.92 in 10.0 mi Calm Calm - N/A   Partly Cloudy
4:53 PM 62.1 °F - 33.1 °F 34% 29.92 in 10.0 mi SSW 4.6 mph - N/A   Overcast
5:53 PM 60.1 °F - 35.1 °F 39% 29.91 in 10.0 mi SSE 4.6 mph - N/A   Overcast
6:53 PM 55.0 °F - 39.9 °F 57% 29.92 in 10.0 mi South 4.6 mph - N/A   Overcast
7:53 PM 52.0 °F - 44.1 °F 74% 29.93 in 10.0 mi West 4.6 mph - 0.04 in Rain Light Rain
8:53 PM 48.9 °F - 46.9 °F 93% 29.93 in 10.0 mi West 5.8 mph - 0.00 in   Overcast
9:53 PM 48.9 °F - 46.0 °F 90% 29.95 in 10.0 mi Calm Calm - 0.00 in Rain Light Rain
10:53 PM 48.0 °F - 46.0 °F 93% 29.97 in 10.0 mi Calm Calm - 0.01 in   Overcast
11:53 PM 46.9 °F - 45.0 °F 93% 29.97 in 10.0 mi Calm Calm - N/A   Overcast